Location: Namasale
(1.5000°N, 32.6167°E)
Time: 19:14:03
(UTC+00:00)

SR - Pass Details

Date: 17 April 2021
Orbit: 573 x 882 km, 66.7° (Epoch: 13 May)

Event Time Altitude Azimuth Distance (km) Brightness Sun altitude
Rises 16:13:14 0° 340° (NNW) 3,267 ? -5.7°
Reaches altitude 10° 16:15:44 10° 340° (NNW) 2,293 ? -6.3°
Maximum altitude 16:20:59 89° 251° (WSW) 718 ? -7.6°
Drops below altitude 10° 16:25:45 10° 161° (SSE) 2,095 ? -8.7°
Sets 16:27:57 0° 160° (SSE) 2,965 ? -9.3°
